| time (UTC) | temp F | wind direction | speed MPH | gust MPH | rain 1hr in | rain 24hr in | rain mn in | humidity % | barometer mb |
| 20260510033016 | 54 | 161 | 3.0 | 6.0 | 0.10 | 0.40 | 0.40 | 94 | 1008.6 |
| 20260510031535 | 54 | 157 | 2.0 | 5.0 | 0.16 | 0.40 | 0.40 | 94 | 1008.7 |
| 20260510030028 | 54 | 153 | 1.0 | 7.0 | 0.32 | 0.44 | 0.40 | 93 | 1008.7 |
| 20260510024536 | 54 | 84 | 1.0 | 3.0 | 0.31 | 0.41 | 0.37 | 92 | 1009.5 |
| 20260510023046 | 54 | 33 | 2.0 | 4.0 | 0.24 | 0.34 | 0.31 | 91 | 1009.6 |
| 20260510021549 | 55 | 331 | 3.0 | 13.0 | 0.18 | 0.28 | 0.24 | 87 | 1009.8 |
| 20260510020055 | 58 | 290 | 5.0 | 21.0 | 0.02 | 0.13 | 0.08 | 79 | 1009.2 |
| 20260510014558 | 61 | 73 | 7.0 | 16.0 | 0.00 | 0.11 | 0.06 | 69 | 1008.4 |
| 20260510013056 | 62 | 207 | 4.0 | 10.0 | 0.00 | 0.11 | 0.06 | 69 | 1007.0 |
| 20260510013008 | 61 | 182 | 4.0 | 10.0 | 0.00 | 0.11 | 0.06 | 69 | 1006.9 |
| 20260510011612 | 62 | 182 | 3.0 | 11.0 | 0.00 | 0.11 | 0.06 | 68 | 1006.5 |
| 20260510004552 | 62 | 218 | 5.0 | 13.0 | 0.00 | 0.11 | 0.06 | 65 | 1006.5 |
| 20260510003003 | 63 | 217 | 5.0 | 14.0 | 0.00 | 0.11 | 0.06 | 64 | 1006.5 |
| 20260510001505 | 63 | 182 | 4.0 | 12.0 | 0.00 | 0.11 | 0.06 | 63 | 1006.4 |
| 20260510000009 | 64 | 207 | 5.0 | 11.0 | 0.00 | 0.11 | 0.06 | 62 | 1006.3 |
| 20260509234524 | 65 | 206 | 5.0 | 16.0 | 0.00 | 0.11 | 0.06 | 62 | 1006.1 |
| 20260509233030 | 65 | 217 | 6.0 | 16.0 | 0.00 | 0.11 | 0.06 | 60 | 1005.9 |
| 20260509231532 | 66 | 195 | 5.0 | 14.0 | 0.00 | 0.11 | 0.06 | 59 | 1006.2 |
| 20260509230042 | 66 | 229 | 7.0 | 16.0 | 0.00 | 0.11 | 0.06 | 59 | 1006.1 |
| 20260509224540 | 67 | 222 | 7.0 | 20.0 | 0.00 | 0.11 | 0.06 | 58 | 1005.8 |
| 20260509223034 | 67 | 218 | 6.0 | 14.0 | 0.00 | 0.11 | 0.06 | 58 | 1005.6 |
| 20260509221542 | 67 | 191 | 9.0 | 18.0 | 0.00 | 0.11 | 0.06 | 58 | 1005.6 |
| 20260509220045 | 67 | 234 | 7.0 | 20.0 | 0.00 | 0.11 | 0.06 | 59 | 1005.9 |
| 20260509214550 | 68 | 213 | 7.0 | 15.0 | 0.00 | 0.11 | 0.06 | 58 | 1006.3 |
| 20260509213049 | 67 | 209 | 5.0 | 21.0 | 0.00 | 0.11 | 0.06 | 60 | 1006.1 |
| 20260509211608 | 67 | 190 | 10.0 | 16.0 | 0.00 | 0.11 | 0.06 | 60 | 1006.3 |
| 20260509210058 | 65 | 228 | 6.0 | 18.0 | 0.00 | 0.11 | 0.06 | 63 | 1006.5 |
| 20260509204603 | 65 | 186 | 7.0 | 20.0 | 0.00 | 0.11 | 0.06 | 62 | 1006.5 |
| 20260509203002 | 65 | 254 | 4.0 | 20.0 | 0.00 | 0.11 | 0.06 | 65 | 1006.8 |
| 20260509201559 | 65 | 198 | 6.0 | 12.0 | 0.00 | 0.11 | 0.06 | 68 | 1006.8 |
| 20260509201502 | 64 | 272 | 8.0 | 12.0 | 0.00 | 0.11 | 0.06 | 67 | 1006.8 |
| 20260509200103 | 65 | 195 | 7.0 | 12.0 | 0.00 | 0.12 | 0.06 | 66 | 1007.0 |
| 20260509200002 | 65 | 194 | 4.0 | 13.0 | 0.00 | 0.12 | 0.06 | 67 | 1007.1 |
| 20260509194511 | 64 | 215 | 4.0 | 16.0 | 0.00 | 0.12 | 0.06 | 68 | 1007.3 |
| 20260509193013 | 63 | 215 | 8.0 | 17.0 | 0.00 | 0.12 | 0.06 | 68 | 1007.4 |
| 20260509191558 | 64 | 209 | 8.0 | 22.0 | 0.00 | 0.12 | 0.06 | 68 | 1007.5 |
| 20260509190100 | 64 | 249 | 8.0 | 17.0 | 0.00 | 0.12 | 0.06 | 69 | 1007.6 |
| 20260509184505 | 63 | 219 | 6.0 | 13.0 | 0.00 | 0.12 | 0.06 | 72 | 1007.9 |
| 20260509183013 | 61 | 219 | 8.0 | 16.0 | 0.00 | 0.12 | 0.06 | 74 | 1008.0 |
| 20260509181516 | 62 | 242 | 6.0 | 10.0 | 0.00 | 0.12 | 0.06 | 75 | 1008.0 |
| 20260509180018 | 60 | 194 | 6.0 | 12.0 | 0.00 | 0.12 | 0.06 | 77 | 1008.3 |
| 20260509174526 | 60 | 230 | 3.0 | 9.0 | 0.00 | 0.12 | 0.06 | 78 | 1008.2 |
| 20260509173029 | 59 | 233 | 8.0 | 19.0 | 0.00 | 0.12 | 0.06 | 77 | 1008.3 |
| 20260509171533 | 60 | 235 | 5.0 | 17.0 | 0.00 | 0.12 | 0.06 | 77 | 1008.2 |
| 20260509170045 | 60 | 238 | 5.0 | 15.0 | 0.00 | 0.12 | 0.06 | 76 | 1008.0 |
| 20260509164553 | 60 | 275 | 8.0 | 14.0 | 0.00 | 0.12 | 0.06 | 78 | 1007.9 |
| 20260509163059 | 58 | 232 | 8.0 | 19.0 | 0.00 | 0.12 | 0.06 | 80 | 1008.0 |
| 20260509161555 | 59 | 209 | 8.0 | 14.0 | 0.00 | 0.12 | 0.06 | 77 | 1007.8 |
| 20260509160039 | 58 | 225 | 6.0 | 10.0 | 0.00 | 0.12 | 0.06 | 82 | 1007.8 |
| 20260509154540 | 57 | 201 | 7.0 | 16.0 | 0.00 | 0.12 | 0.06 | 85 | 1007.7 |
| 20260509153044 | 57 | 201 | 7.0 | 14.0 | 0.00 | 0.12 | 0.06 | 89 | 1007.8 |
| 20260509151552 | 54 | 193 | 5.0 | 12.0 | 0.00 | 0.12 | 0.06 | 92 | 1007.7 |
| 20260509150053 | 53 | 221 | 4.0 | 15.0 | 0.00 | 0.12 | 0.06 | 94 | 1007.8 |
| 20260509144559 | 53 | 227 | 5.0 | 12.0 | 0.00 | 0.12 | 0.06 | 94 | 1007.8 |
| 20260509144504 | 53 | 234 | 4.0 | 14.0 | 0.00 | 0.12 | 0.06 | 94 | 1007.8 |
| 20260509143010 | 53 | 241 | 5.0 | 12.0 | 0.00 | 0.12 | 0.06 | 95 | 1007.9 |
| 20260509141519 | 52 | 221 | 5.0 | 11.0 | 0.00 | 0.12 | 0.06 | 95 | 1007.9 |
| 20260509140020 | 52 | 229 | 6.0 | 12.0 | 0.00 | 0.12 | 0.06 | 95 | 1008.0 |
| 20260509134524 | 51 | 213 | 5.0 | 12.0 | 0.00 | 0.12 | 0.06 | 95 | 1008.0 |
| 20260509133009 | 51 | 196 | 4.0 | 10.0 | 0.00 | 0.12 | 0.06 | 95 | 1008.0 |
| 20260509131522 | 51 | 205 | 2.0 | 9.0 | 0.01 | 0.12 | 0.06 | 95 | 1008.2 |
| 20260509130021 | 51 | 212 | 2.0 | 12.0 | 0.02 | 0.12 | 0.06 | 95 | 1008.2 |
| 20260509124527 | 51 | 248 | 4.0 | 11.0 | 0.02 | 0.12 | 0.06 | 95 | 1008.2 |
| 20260509123028 | 51 | 194 | 3.0 | 13.0 | 0.02 | 0.12 | 0.06 | 95 | 1008.3 |
| 20260509121538 | 51 | 209 | 5.0 | 10.0 | 0.02 | 0.11 | 0.05 | 95 | 1008.4 |
| 20260509120040 | 51 | 207 | 4.0 | 10.0 | 0.02 | 0.10 | 0.04 | 95 | 1008.4 |
| 20260509114556 | 51 | 219 | 2.0 | 8.0 | 0.03 | 0.10 | 0.04 | 95 | 1008.3 |
| 20260509113052 | 50 | 209 | 3.0 | 11.0 | 0.03 | 0.10 | 0.04 | 95 | 1008.2 |
| 20260509111553 | 50 | 211 | 5.0 | 11.0 | 0.02 | 0.09 | 0.03 | 95 | 1008.2 |
| 20260509110101 | 50 | 182 | 4.0 | 14.0 | 0.01 | 0.08 | 0.02 | 95 | 1007.9 |
| 20260509110001 | 50 | 256 | 6.0 | 14.0 | 0.01 | 0.08 | 0.02 | 95 | 1008.0 |
| 20260509104602 | 50 | 221 | 3.0 | 12.0 | 0.00 | 0.07 | 0.01 | 95 | 1007.9 |
| 20260509103005 | 50 | 223 | 5.0 | 10.0 | 0.00 | 0.07 | 0.01 | 95 | 1008.0 |
| 20260509101517 | 50 | 197 | 5.0 | 10.0 | 0.00 | 0.07 | 0.01 | 95 | 1007.9 |
| 20260509100021 | 49 | 202 | 2.0 | 7.0 | 0.00 | 0.07 | 0.01 | 96 | 1007.9 |
| 20260509094527 | 49 | 198 | 4.0 | 8.0 | 0.01 | 0.07 | 0.01 | 96 | 1008.2 |
| 20260509093029 | 49 | 203 | 1.0 | 6.0 | 0.01 | 0.07 | 0.01 | 96 | 1008.3 |
| 20260509091538 | 49 | 178 | 2.0 | 6.0 | 0.01 | 0.07 | 0.01 | 96 | 1008.4 |
| 20260509090043 | 48 | 120 | 0.0 | 2.0 | 0.01 | 0.07 | 0.01 | 96 | 1008.6 |
| 20260509084551 | 48 | 120 | 0.0 | 3.0 | 0.00 | 0.06 | 0.00 | 96 | 1008.7 |
| 20260509083037 | 48 | 119 | 1.0 | 4.0 | 0.00 | 0.06 | 0.00 | 96 | 1008.7 |
| 20260509081552 | 48 | 117 | 1.0 | 3.0 | 0.00 | 0.06 | 0.00 | 96 | 1008.8 |
| 20260509080139 | 48 | 117 | 1.0 | 2.0 | 0.00 | 0.06 | 0.00 | 95 | 1008.9 |
| 20260509080001 | 48 | 117 | 0.0 | 2.0 | 0.00 | 0.06 | 0.00 | 95 | 1008.9 |
| 20260509074508 | 48 | 117 | 0.0 | 1.0 | 0.00 | 0.06 | 0.00 | 95 | 1009.0 |
| 20260509073158 | 48 | 116 | 1.0 | 3.0 | 0.00 | 0.06 | 0.00 | 95 | 1009.0 |
| 20260509071554 | 48 | 116 | 1.0 | 3.0 | 0.00 | 0.06 | 0.00 | 95 | 1009.0 |
| 20260509071501 | 48 | 116 | 1.0 | 3.0 | 0.00 | 0.06 | 0.00 | 95 | 1008.9 |
| 20260509070048 | 48 | 116 | 1.0 | 3.0 | 0.00 | 0.06 | 0.00 | 95 | 1009.1 |
| 20260509064550 | 48 | 113 | 1.0 | 3.0 | 0.00 | 0.06 | 0.00 | 95 | 1009.2 |
| 20260509063051 | 48 | 112 | 0.0 | 3.0 | 0.00 | 0.06 | 0.00 | 95 | 1009.1 |
| 20260509061558 | 48 | 109 | 2.0 | 6.0 | 0.00 | 0.06 | 0.00 | 95 | 1009.1 |
| 20260509060043 | 48 | 107 | 2.0 | 4.0 | 0.00 | 0.06 | 0.00 | 95 | 1009.2 |
| 20260509054549 | 48 | 89 | 1.0 | 3.0 | 0.00 | 0.06 | 0.00 | 95 | 1009.6 |
| 20260509053055 | 48 | 89 | 0.0 | 5.0 | 0.00 | 0.06 | 0.00 | 95 | 1009.7 |
| 20260509051604 | 48 | 96 | 1.0 | 2.0 | 0.00 | 0.06 | 0.00 | 95 | 1009.8 |
| 20260509050040 | 48 | 96 | 1.0 | 3.0 | 0.00 | 0.06 | 0.00 | 95 | 1009.8 |
| 20260509044542 | 49 | 97 | 0.0 | 4.0 | 0.00 | 0.06 | 0.00 | 95 | 1009.9 |
| 20260509043052 | 49 | 111 | 2.0 | 6.0 | 0.00 | 0.06 | 0.00 | 94 | 1010.0 |
| 20260509041557 | 49 | 92 | 1.0 | 4.0 | 0.00 | 0.06 | 0.00 | 95 | 1010.2 |
| 20260509040010 | 49 | 90 | 1.0 | 4.0 | 0.00 | 0.06 | 0.06 | 94 | 1010.5 |
| 20260509034512 | 49 | 89 | 1.0 | 4.0 | 0.01 | 0.06 | 0.06 | 94 | 1010.7 |